Regional Weather Roundup
Issued by NWS Green Bay, WI

Home | Current Version | Previous Version | Graphics & Text | Print | Product List | Glossary Off
Versions: 1 2 3 4 5 6 7 8 9 10 11 12 13 14 15 16 17 18 19 20 21 22 23 24 25 26 27 28 29 30 31 32 33 34 35 36 37 38 39 40 41 42 43 44 45 46 47 48 49 50

000
ASUS43 KGRB 012359
RWRGRB

NORTH-CENTRAL AND NORTHEAST WISCONSIN REGIONAL WEATHER ROUNDUP
NATIONAL WEATHER SERVICE GREEN BAY WI
700 PM CDT WED APR 01 2015

WIZ005-009-010>012-018-019-020100-
NORTH CENTRAL WISCONSIN

CITY           SKY/WX    TMP DP  RH WIND       PRES   REMARKS
IRONWOOD       CLOUDY    57  37  47 S17G25    29.47F
MANITOWISH WTR NOT AVBL
ARBOR VITAE    NOT AVBL
EAGLE RIVER    NOT AVBL
LAND O LAKES   NOT AVBL
RHINELANDER    CLOUDY    56  36  47 SE10      29.63F
PHILLIPS       NOT AVBL
ANTIGO         NOT AVBL
TOMAHAWK       NOT AVBL
MERRILL        NOT AVBL
$$

WIZ013-073-020100-
NORTHEAST WISCONSIN

CITY           SKY/WX    TMP DP  RH WIND       PRES   REMARKS
IRON MOUNTAIN  CLOUDY    46  30  53 SE13      29.69F
MARINETTE      CLOUDY    46  34  61 SE7       29.77S
$$

WIZ017-030-035>037-045-020100-
CENTRAL WISCONSIN

CITY           SKY/WX    TMP DP  RH WIND       PRES   REMARKS
MEDFORD        NOT AVBL
WAUSAU         CLOUDY    69  35  28 S17G26    29.61F
MOSINEE        CLEAR     70  36  28 S20G25    29.65F
MARSHFIELD     PTCLDY    72  34  24 S18G26    29.62F
WISC RAPIDS    PTCLDY    72  30  21 S15       29.66F
STEVENS POINT  NOT AVBL
WAUPACA        NOT AVBL
SHAWANO        NOT AVBL
CLINTONVILLE   NOT AVBL
$$

WIZ038-039-048-051-020100-
FOX VALLEY

CITY           SKY/WX    TMP DP  RH WIND       PRES   REMARKS
NWS GREEN BAY  CLOUDY    55  40  56 S17       29.73F
APPLETON       NOT AVBL
OSHKOSH        PTCLDY    61  41  47 S13       29.72F
FOND DU LAC    PTCLDY    61  40  45 S13       29.74F
$$

WIZ022-050-052-020100-
EAST CENTRAL WISCONSIN

CITY           SKY/WX    TMP DP  RH WIND       PRES   REMARKS
STURGEON BAY   CLOUDY    45  34  65 S20G26    29.78F
MANITOWOC      NOT AVBL
SHEBOYGAN      MOCLDY    52  36  54 S14G22    29.79F
$$

LMZ563-521-522-541>543-020100-
LAKESHORE

STATION/POSITION TIME  TEMP    WIND        PRES    VSBY  WAVE
                       AIR SEA DIR/SP/G                  HT/PER
                 (UTC) (F)     (DEG/KT/KT) (MB)    (MI)  (FT/S)
SHEBOYGAN LKSHOR 2300   43     180/ 17/ 18 1010.6F
KEWAUNEE LKSHORE 2300   42     180/ 18/ 22 1008.1F
NORTHPORT PIER   2300   37     140/  8/ 10 1010.2S
CHAMBERS ISLAND  2300   47     150/  7/ 18 1008.8F
MENOMINEE LKSHOR 2300   34     160/  9     1008.8F
$$



USA.gov is the U.S. government's official web portal to all federal, state and local government web resources and services.